Location: Newark
(46.7000°N, 60.6000°W)
Time: 06:51:55
(UTC+00:00)

N. Korean satellite - Visible Passes

Search period start: 21 September 2020 00:00
Search period end: 01 October 2020 00:00
Orbit: 455 x 503 km, 97.2° (Epoch: 20 September)

Date Brightness Start Highest point End Pass type
(mag) Time Alt. Az. Time Alt. Az. Time Alt. Az.
21 Sep 9.8 08:41:08 10° NE 08:43:28 16° E 08:45:46 10° SE visible
23 Sep 7.9 09:21:28 10° NNE 09:25:02 46° E 09:28:31 10° S visible
24 Sep 9.4 08:55:55 10° NE 08:58:53 23° E 09:01:50 10° SSE visible
25 Sep 10.1 08:31:10 10° ENE 08:32:39 12° E 08:34:08 10° ESE visible
27 Sep 8.5 09:10:55 10° NNE 09:14:17 34° E 09:17:34 10° SSE visible
28 Sep 9.7 08:45:34 10° NE 08:48:05 18° E 08:50:35 10° SE visible
30 Sep 7.5 09:26:03 10° NNE 09:29:36 53° E 09:33:05 10° S visible
